DELTA 1 DEB, 7037

Orbit data source: Space-Track

DELTA 1 DEB, 7037 is space debris in LEO originally from a launch on Tue, 06 Nov 1973 UTC launched from the Air Force Western Test Range (AFWTR). Debris objects in space refer to the collection of defunct objects orbiting the Earth. Examples of debris include non-operational satellites, rocket bodies, and fragments generated from explosions, collisions, or faulty payload assembly.

Loading next visibility...
DELTA 1 DEB details
Identifier
7037, 1973-086AD
Orbit
LEO
Last TLE update1 day ago
Origin
Flag of USGSFC (US)
ManufacturerUnknown
MissionSpacecraft
Bus & MotorUnknown
MassUnknown
Launch date (UTC)
1973-11-06 (51 years ago)
Launch vehicleUnknown
Launch site
Air Force Western Test Range (AFWTR)
Object type
Payload
Rocket body
Debris
Shape & HBRUnknown
Radar Cross SectionMedium (>0.1 m² and <1 m²)

Expand to show TLE details & history

TLE from 1 day ago
0 DELTA 1 DEB
1 07037U 73086AD  24360.20138799 -.00000369  00000-0 -41800-2 0  9990
2 07037 102.0634  89.1630 0320949   8.2182  47.0578 11.86637408214079
Epoch: 2024-12-25T04:49Z
Definitive object data (Epoch: 2024-12-25T04:49:59.922Z)
Latitude56.16175°
Longitude-96.03059°
Altitude1,577.453 km
Speed7.16 km/s
True Right ascension04h 42m 40s
True Declination56° 01' 08"
Sunlit
Object was in full shadow at TLE epoch
Visualization TLE readout
Latitude64.83263°
Longitude-103.31367°
Altitude1,621.725 km
Speed7.122 km/s
Apparent Right ascension00h 47m 27s
Apparent Declination26° 48' 04"
Sunlit
Object is in full shadow
Visualization observer readout
Local Sidereal Time10:35:23
Azimuth329.514° NNW
Elevation-16.543°
Doppler factor1
Orbital elements
Apogee altitude1,999.409 km
Perigee altitude1,478.378 km
Semi-major axis8,117.03 km
Eccentricity0.0320949
Inclination102.0634°
RAAN89.163°
Arg. of periapsis8.2182°
True anomaly49.82459°
Mean anomaly47.0578°
Eccentric anomaly48.43364°
Mean motion2.96789 °/min
BSTAR-0.00418
Orbital period121.3 mins
Loading maneuver chart data...
Loading historical data...
Loading historical data...
Loading historical data...
Loading historical data...
Loading historical data...
Loading historical data...
Loading historical data...

DELTA 1 DEB Visibility forecast

Observer location: undefined°, undefined

Span
Click to sort rows by Start time (UTC) header in descending order
Start Az.
Max El. time (UTC)
Max El. Az.
Max El.
End time (UTC)
End Az.
16 mins2024-12-26 17:36:04.690Z40.724° NE2024-12-26 17:44:04.690Z96.371° ESE26.453°2024-12-26 17:52:04.690Z149.293° SSE
19 mins2024-12-26 19:35:04.690Z12.409° NNE2024-12-26 19:43:04.690Z303.772° NW43.595°2024-12-26 19:54:04.690Z211.311° SW
11 mins2024-12-26 21:36:04.690Z343.496° N2024-12-26 21:41:04.690Z309.104° NW18.653°2024-12-26 21:47:04.690Z273.147° WNW
5 mins2024-12-27 03:20:04.690Z55.653° ENE2024-12-27 03:22:04.690Z41.427° NE12.398°2024-12-27 03:25:04.690Z20.852° NNE
15 mins2024-12-27 05:12:04.690Z136.444° SSE2024-12-27 05:19:04.690Z61.623° ENE39.705°2024-12-27 05:27:04.690Z350.587° N
12 mins2024-12-27 07:13:04.690Z213.515° SW2024-12-27 07:18:04.690Z260.082° W27.343°2024-12-27 07:25:04.690Z320.244° NNW
|